• In Uzbekistan
  • List of Countries
  • For 7 days
  • Water Temperature
  • Satellite Maps
  • Weather Map
  • Weather Widgets
  • user-avatar
    Login

    Hourly Weather Poti

    Today, 19 September, Tuesday

    Time Temperature Precipitation Wind Pressure Humidity
    00:00 +25°C° 0 mm 2 mps 761 mmHg 57%
    01:00 +25°C° 0 mm 2 mps 761 mmHg 55%
    02:00 +25°C° 0 mm 3 mps 761 mmHg 53%
    03:00 +25°C° 0 mm 3 mps 761 mmHg 48%
    04:00 +25°C° 0 mm 3 mps 761 mmHg 48%
    05:00 +25°C° 0 mm 3 mps 761 mmHg 47%
    06:00 +24°C° 0 mm 3 mps 761 mmHg 47%
    07:00 +27°C° 0 mm 3 mps 761 mmHg 45%
    08:00 +29°C° 0 mm 3 mps 761 mmHg 43%
    09:00 +31°C° 0 mm 3 mps 760 mmHg 41%
    10:00 +34°C° 0 mm 2 mps 760 mmHg 37%
    11:00 +36°C° 0 mm 2 mps 760 mmHg 33%
    12:00 +37°C° 0 mm 2 mps 760 mmHg 29%
    13:00 +37°C° 0 mm 2 mps 760 mmHg 29%
    14:00 +38°C° 0 mm 2 mps 760 mmHg 29%
    15:00 +38°C° 0 mm 2 mps 759 mmHg 29%
    16:00 +35°C° 0 mm 2 mps 760 mmHg 37%
    17:00 +31°C° 0 mm 2 mps 760 mmHg 46%
    18:00 +28°C° 0 mm 2 mps 760 mmHg 55%
    19:00 +28°C° 0 mm 2 mps 760 mmHg 53%
    20:00 +27°C° 0 mm 2 mps 760 mmHg 52%
    21:00 +27°C° 0 mm 3 mps 760 mmHg 50%
    22:00 +26°C° 0 mm 3 mps 760 mmHg 47%
    23:00 +26°C° 0 mm 3 mps 760 mmHg 44%

    Tomorrow, 20 September, Wednesday

    Time Temperature Precipitation Wind Pressure Humidity
    00:00 +26°C° 0 mm 4 mps 760 mmHg 41%
    01:00 +26°C° 0 mm 4 mps 760 mmHg 40%
    02:00 +26°C° 0 mm 4 mps 760 mmHg 38%
    03:00 +26°C° 0 mm 4 mps 760 mmHg 36%
    04:00 +26°C° 0 mm 4 mps 760 mmHg 37%
    05:00 +26°C° 0 mm 5 mps 760 mmHg 37%
    06:00 +26°C° 0 mm 5 mps 760 mmHg 37%
    07:00 +28°C° 0 mm 5 mps 760 mmHg 37%
    08:00 +30°C° 0 mm 4 mps 760 mmHg 37%
    09:00 +33°C° 0 mm 4 mps 760 mmHg 37%
    10:00 +35°C° 0 mm 4 mps 759 mmHg 33%
    11:00 +37°C° 0 mm 4 mps 759 mmHg 29%
    12:00 +38°C° 0 mm 3 mps 759 mmHg 25%
    13:00 +38°C° 0 mm 3 mps 759 mmHg 25%
    14:00 +39°C° 0 mm 2 mps 759 mmHg 25%
    15:00 +39°C° 0 mm 2 mps 758 mmHg 25%
    16:00 +36°C° 0 mm 2 mps 759 mmHg 32%
    17:00 +32°C° 0 mm 2 mps 759 mmHg 39%
    18:00 +30°C° 0 mm 2 mps 759 mmHg 46%
    19:00 +29°C° 0 mm 2 mps 759 mmHg 45%
    20:00 +28°C° 0 mm 2 mps 760 mmHg 45%
    21:00 +27°C° 0 mm 2 mps 760 mmHg 44%
    22:00 +27°C° 0 mm 2 mps 760 mmHg 43%
    23:00 +26°C° 0 mm 2 mps 760 mmHg 42%

    Day after tomorrow, 21 September, Thursday

    Time Temperature Precipitation Wind Pressure Humidity
    00:00 +26°C° 0 mm 3 mps 760 mmHg 41%
    01:00 +26°C° 0 mm 3 mps 760 mmHg 40%
    02:00 +26°C° 0 mm 3 mps 760 mmHg 40%
    03:00 +26°C° 0 mm 3 mps 760 mmHg 39%
    04:00 +26°C° 0 mm 3 mps 760 mmHg 39%
    05:00 +25°C° 0 mm 3 mps 760 mmHg 38%
    06:00 +25°C° 0 mm 3 mps 760 mmHg 37%
    07:00 +27°C° 0 mm 3 mps 760 mmHg 37%
    08:00 +30°C° 0 mm 3 mps 759 mmHg 36%
    09:00 +33°C° 0 mm 3 mps 759 mmHg 35%
    10:00 +35°C° 0 mm 3 mps 759 mmHg 32%
    11:00 +37°C° 0 mm 2 mps 758 mmHg 29%
    12:00 +38°C° 0 mm 2 mps 758 mmHg 25%
    13:00 +38°C° 0 mm 2 mps 758 mmHg 26%
    14:00 +39°C° 0 mm 2 mps 757 mmHg 27%
    15:00 +39°C° 0 mm 2 mps 757 mmHg 27%
    16:00 +36°C° 0 mm 2 mps 757 mmHg 35%
    17:00 +32°C° 0 mm 2 mps 757 mmHg 42%
    18:00 +30°C° 0 mm 2 mps 757 mmHg 50%
    19:00 +29°C° 0 mm 2 mps 757 mmHg 49%
    20:00 +29°C° 0 mm 2 mps 758 mmHg 49%
    21:00 +28°C° 0 mm 1 mps 758 mmHg 48%
    22:00 +28°C° 0 mm 1 mps 758 mmHg 47%
    23:00 +27°C° 0 mm 1 mps 758 mmHg 47%

    22 September, Friday

    Time Temperature Precipitation Wind Pressure Humidity
    00:00 +27°C° 0 mm 1 mps 758 mmHg 46%
    01:00 +27°C° 0 mm 2 mps 758 mmHg 44%
    02:00 +26°C° 0 mm 2 mps 758 mmHg 43%
    03:00 +26°C° 0 mm 2 mps 758 mmHg 41%
    04:00 +26°C° 0 mm 2 mps 758 mmHg 40%
    05:00 +26°C° 0 mm 2 mps 758 mmHg 40%
    06:00 +26°C° 0 mm 3 mps 758 mmHg 39%
    07:00 +28°C° 0 mm 3 mps 758 mmHg 38%
    08:00 +30°C° 0 mm 3 mps 758 mmHg 37%
    09:00 +33°C° 0 mm 3 mps 758 mmHg 36%
    10:00 +35°C° 0.3 mm 2 mps 758 mmHg 33%
    11:00 +36°C° 0.3 mm 2 mps 758 mmHg 30%
    12:00 +37°C° 0.3 mm 1 mps 758 mmHg 27%
    13:00 +37°C° 0.1 mm 2 mps 758 mmHg 28%
    14:00 +37°C° 0.1 mm 3 mps 758 mmHg 30%
    15:00 +36°C° 0.1 mm 4 mps 758 mmHg 31%
    16:00 +33°C° 0 mm 4 mps 758 mmHg 44%
    17:00 +29°C° 0 mm 4 mps 759 mmHg 58%
    18:00 +26°C° 0 mm 4 mps 760 mmHg 71%
    19:00 +26°C° 0 mm 4 mps 760 mmHg 75%
    20:00 +25°C° 0 mm 4 mps 761 mmHg 78%
    21:00 +23°C° 0 mm 4 mps 762 mmHg 82%
    22:00 +24°C° 0 mm 3 mps 762 mmHg 82%
    23:00 +22°C° 0 mm 3 mps 762 mmHg 83%

    23 September, Saturday

    Time Temperature Precipitation Wind Pressure Humidity
    00:00 +22°C° 0 mm 3 mps 762 mmHg 83%
    01:00 +22°C° 0.1 mm 3 mps 763 mmHg 82%
    02:00 +23°C° 0.1 mm 2 mps 763 mmHg 81%
    03:00 +23°C° 0.1 mm 2 mps 763 mmHg 79%
    04:00 +21°C° 0.1 mm 2 mps 763 mmHg 78%
    05:00 +21°C° 0.1 mm 2 mps 763 mmHg 77%
    06:00 +21°C° 0.1 mm 2 mps 763 mmHg 75%
    07:00 +24°C° 0 mm 2 mps 763 mmHg 69%
    08:00 +26°C° 0 mm 2 mps 763 mmHg 64%
    09:00 +28°C° 0 mm 2 mps 763 mmHg 58%
    10:00 +30°C° 0 mm 2 mps 762 mmHg 54%
    11:00 +31°C° 0 mm 2 mps 762 mmHg 51%
    12:00 +32°C° 0 mm 2 mps 762 mmHg 48%
    13:00 +31°C° 0 mm 2 mps 762 mmHg 52%
    14:00 +31°C° 0 mm 3 mps 762 mmHg 56%
    15:00 +30°C° 0 mm 3 mps 762 mmHg 60%
    16:00 +29°C° 0 mm 3 mps 762 mmHg 69%
    17:00 +27°C° 0 mm 3 mps 762 mmHg 78%
    18:00 +25°C° 0 mm 2 mps 763 mmHg 87%
    19:00 +25°C° 0 mm 2 mps 763 mmHg 90%
    20:00 +24°C° 0 mm 2 mps 763 mmHg 92%
    21:00 +23°C° 0 mm 1 mps 764 mmHg 95%
    22:00 +23°C° 0.1 mm 1 mps 764 mmHg 94%
    23:00 +23°C° 0.1 mm 1 mps 764 mmHg 93%

    24 September, Sunday

    Time Temperature Precipitation Wind Pressure Humidity
    00:00 +23°C° 0.1 mm 1 mps 764 mmHg 92%
    01:00 +23°C° 0.1 mm 1 mps 764 mmHg 90%
    02:00 +23°C° 0.1 mm 1 mps 764 mmHg 88%
    03:00 +22°C° 0.1 mm 1 mps 764 mmHg 86%
    04:00 +22°C° 0 mm 1 mps 764 mmHg 82%
    05:00 +21°C° 0 mm 2 mps 764 mmHg 78%
    06:00 +21°C° 0 mm 2 mps 764 mmHg 74%
    07:00 +24°C° 0 mm 2 mps 764 mmHg 67%
    08:00 +26°C° 0 mm 2 mps 764 mmHg 60%
    09:00 +28°C° 0 mm 2 mps 763 mmHg 53%
    10:00 +29°C° 0 mm 2 mps 763 mmHg 49%
    11:00 +30°C° 0 mm 2 mps 763 mmHg 46%
    12:00 +31°C° 0 mm 2 mps 763 mmHg 43%
    13:00 +31°C° 0 mm 2 mps 762 mmHg 48%
    14:00 +30°C° 0 mm 2 mps 762 mmHg 53%
    15:00 +30°C° 0 mm 3 mps 762 mmHg 59%
    16:00 +28°C° 0 mm 2 mps 762 mmHg 69%
    17:00 +26°C° 0 mm 2 mps 763 mmHg 79%
    18:00 +25°C° 0 mm 2 mps 763 mmHg 89%
    19:00 +24°C° 0 mm 1 mps 763 mmHg 91%
    20:00 +24°C° 0 mm 1 mps 763 mmHg 93%
    21:00 +23°C° 0 mm 1 mps 764 mmHg 94%
    22:00 +23°C° 0 mm 1 mps 764 mmHg 92%
    23:00 +23°C° 0 mm 1 mps 764 mmHg 91%
    Show more